Abilene, TX

2:12 AM CDT on September 30, 2016 (GMT -0500)
Abilene Regional

Weather History for KABI - March, 2014

Change the Weather History Date:

Friday, March 14, 2014

  Actual Average Record
Temperature  
Mean Temperature 64 °F 56 °F  
Max Temperature 78 °F 68 °F 91 °F (1908)
Min Temperature 50 °F 44 °F 18 °F (1988)
Degree Days  
Heating Degree Days 1 10  
Month to date heating degree days 215 162  
Since 1 July heating degree days 2577 2295  
Cooling Degree Days 0 1  
Month to date cooling degree days 6 9  
Year to date cooling degree days 11 14  
Growing Degree Days 14 (Base 50)    
Moisture  
Dew Point 35 °F    
Average Humidity 43    
Maximum Humidity 59    
Minimum Humidity 26    
Precipitation  
Precipitation 0.00 in 0.05 in 0.80 in (1945)
Month to date precipitation 0.03 0.79  
Year to date precipitation 0.52 3.17  
Sea Level Pressure  
Sea Level Pressure 29.91 in    
Wind  
Wind Speed 12 mph (South)    
Max Wind Speed 22 mph    
Max Gust Speed 29 mph    
Visibility 10 miles    
Events      
T = Trace of Precipitation, MM = Missing Value Source: NWS Daily Summary

Daily Weather History Graph

Daily Weather History Graph

Search for Another Location

Airport or City:

Trip Planner

Search our weather history database for the weather conditions in past years. The results will help you decide how hot, cold, wet, or windy it might be!

Date:

Astronomy

Mar. 14, 2014 Rise Set
Actual Time 7:50 AM CDT 7:46 PM CDT
Civil Twilight 7:25 AM CDT 8:10 PM CDT
Nautical Twilight 6:57 AM CDT 8:39 PM CDT
Astronomical Twilight 6:28 AM CDT 9:07 PM CDT
Moon 6:13 PM CDT (3/14) 6:26 AM CDT (3/14)
Length of Visible Light 12h 44m
Length of Day
11h 55m
Waxing Gibbous, 96% of the Moon is Illuminated
Mar 14
Waxing Gibbous
Mar 16
Full
Mar 23
Last Quarter
Mar 30
New
Apr 7
First Quarter

Hourly Weather History & Observations

Time (CDT) Temp. Dew Point Humidity Pressure Visibility Wind Dir Wind Speed Gust Speed Precip Events Conditions
12:52 AM 55.9 °F 21.0 °F 26% 29.96 in 10.0 mi South 16.1 mph 25.3 mph N/A   Clear
1:52 AM 54.0 °F 21.0 °F 28% 29.97 in 10.0 mi SSW 12.7 mph 24.2 mph N/A   Clear
2:52 AM 53.1 °F 21.9 °F 30% 29.96 in 10.0 mi South 10.4 mph 19.6 mph N/A   Clear
3:52 AM 51.1 °F 21.0 °F 31% 29.93 in 10.0 mi South 11.5 mph - N/A   Clear
4:52 AM 51.1 °F 21.0 °F 31% 29.91 in 10.0 mi South 11.5 mph - N/A   Clear
5:52 AM 51.1 °F 25.0 °F 36% 29.91 in 10.0 mi South 13.8 mph - N/A   Clear
6:52 AM 50.0 °F 28.0 °F 43% 29.91 in 10.0 mi SSW 16.1 mph 23.0 mph N/A   Clear
7:52 AM 50.0 °F 30.9 °F 48% 29.93 in 10.0 mi South 15.0 mph 21.9 mph N/A   Clear
8:52 AM 52.0 °F 36.0 °F 54% 29.94 in 10.0 mi SSW 19.6 mph 26.5 mph N/A   Clear
9:52 AM 54.0 °F 39.0 °F 57% 29.96 in 10.0 mi SSW 16.1 mph - N/A   Clear
10:52 AM 60.1 °F 42.1 °F 51% 29.96 in 10.0 mi SW 20.7 mph - N/A   Clear
11:52 AM 66.0 °F 42.1 °F 42% 29.96 in 10.0 mi SSW 13.8 mph - N/A   Clear
12:52 PM 70.0 °F 42.1 °F 36% 29.94 in 10.0 mi SW 8.1 mph - N/A   Clear
1:52 PM 73.0 °F 41.0 °F 31% 29.91 in 10.0 mi WSW 12.7 mph 20.7 mph N/A   Clear
2:52 PM 75.9 °F 41.0 °F 29% 29.88 in 10.0 mi WSW 9.2 mph - N/A   Clear
3:52 PM 75.9 °F 39.9 °F 27% 29.86 in 10.0 mi SSE 6.9 mph 16.1 mph N/A   Clear
4:52 PM 77.0 °F 39.0 °F 25% 29.86 in 10.0 mi South 8.1 mph - N/A   Clear
5:52 PM 75.9 °F 39.0 °F 26% 29.85 in 10.0 mi South 10.4 mph - N/A   Clear
6:52 PM 75.0 °F 39.9 °F 28% 29.85 in 10.0 mi South 11.5 mph - N/A   Clear
7:52 PM 71.1 °F 39.9 °F 32% 29.86 in 10.0 mi SSE 6.9 mph - N/A   Clear
8:52 PM 66.0 °F 39.9 °F 38% 29.88 in 10.0 mi SE 6.9 mph - N/A   Clear
9:52 PM 66.0 °F 43.0 °F 43% 29.88 in 10.0 mi SSE 10.4 mph - N/A   Clear
10:52 PM 66.0 °F 45.0 °F 47% 29.88 in 10.0 mi SSE 13.8 mph - N/A   Clear
11:52 PM 64.9 °F 46.9 °F 52% 29.87 in 10.0 mi SSE 13.8 mph - N/A   Clear